Theta_e
351 351 353 352 351 345 341 346 349 352 356 355 354 355 355 354 353 354 354 353 354 350 349 353 354 349 345 346 351 352 348 349 351 348 342 341 341 346 352 352 348 346 343 344 350 353 355 355 351 346 345 344 344 347 349 350 349 348 347 347 347 348 349 351 352 352 350 347 344 346 350 351 350 350 351 350 350 350 349 350 350 348 346 345 346
350 351 353 353 353 349 345 345 347 351 356 355 354 355 355 355 354 353 353 354 355 354 350 352 355 354 351 349 350 353 352 350 352 352 348 344 341 344 349 349 346 347 345 342 345 349 352 352 348 344 344 345 345 348 350 351 348 347 347 348 348 349 351 351 352 353 352 349 347 347 350 352 351 350 349 350 351 351 350 351 351 350 348 348 347
348 349 351 350 351 352 351 350 350 352 355 355 355 356 355 355 354 354 354 353 354 355 353 353 354 353 353 352 351 352 352 349 349 352 352 348 345 346 352 353 349 347 345 342 343 345 345 346 346 347 349 352 351 352 352 351 350 349 349 348 349 349 350 350 350 351 352 351 350 348 349 350 349 349 349 352 353 352 350 351 350 351 350 348 346
348 349 350 350 349 351 352 353 353 353 355 355 355 355 355 354 354 354 354 353 353 354 353 354 354 352 351 353 352 350 350 348 347 351 352 351 350 350 351 352 351 350 349 347 348 349 349 348 349 350 352 353 353 353 353 352 351 351 351 351 351 351 351 352 352 353 354 354 353 351 351 351 350 352 354 354 354 353 353 352 351 350 348 346 346
348 348 349 351 351 351 351 352 353 352 353 354 354 354 354 354 354 354 355 354 353 354 353 353 354 352 350 351 350 347 347 347 346 350 352 353 352 351 351 350 349 351 351 350 350 352 352 352 352 353 353 352 352 353 352 353 354 354 354 353 354 354 355 356 355 355 355 355 354 353 352 354 353 354 354 353 354 354 353 351 348 346 346 347 347
347 348 349 350 350 350 350 350 350 351 351 351 352 352 353 353 353 354 354 354 353 353 354 354 354 352 350 351 350 346 345 347 347 349 352 354 352 350 352 351 351 351 351 351 353 353 353 352 352 354 353 353 354 353 352 353 354 354 354 354 354 354 354 353 353 355 356 355 355 353 353 354 354 353 352 351 352 352 350 347 345 345 345 346 345
347 347 349 350 350 350 350 349 349 349 349 349 349 349 350 351 352 353 353 353 352 353 353 354 354 352 350 352 353 351 348 348 348 347 349 352 352 350 350 351 352 352 351 352 355 355 354 354 354 354 354 353 354 354 354 354 354 354 354 354 355 354 352 351 351 353 354 355 355 355 353 352 351 351 349 346 347 348 347 345 343 344 345 346 343
348 348 349 351 351 349 350 350 348 348 347 347 347 346 347 347 349 350 351 352 352 352 351 352 354 353 351 350 353 353 352 351 349 347 346 348 349 349 350 351 353 353 350 350 353 353 353 352 353 354 354 353 354 354 355 355 355 355 355 355 356 355 353 352 351 351 352 352 352 352 350 349 348 348 346 344 344 344 343 344 345 346 346 344 341
348 349 350 351 351 350 350 350 349 348 347 346 345 345 345 345 345 346 346 348 351 351 350 350 352 353 352 351 351 351 352 352 351 349 347 346 346 347 348 350 352 351 349 350 352 353 352 351 352 352 352 352 352 353 353 352 352 352 352 351 350 347 345 344 342 343 344 343 342 343 345 348 349 348 345 344 343 343 345 347 347 345 342 340 340
350 350 351 351 351 351 351 350 350 348 347 346 345 344 344 344 344 344 345 346 347 348 348 349 350 351 351 352 352 352 352 353 353 352 351 349 348 348 348 346 347 348 348 349 351 351 351 351 351 350 350 351 351 351 351 351 351 349 346 343 340 339 339 338 337 338 338 338 338 339 341 344 347 346 345 345 346 347 347 346 344 342 341 342 344
354 351 353 354 354 353 352 351 351 349 348 348 346 344 344 345 344 344 345 346 346 346 346 346 348 349 350 351 352 353 352 352 352 352 353 352 350 351 349 345 344 346 347 348 349 349 350 350 349 348 347 349 350 349 349 349 349 348 346 343 341 342 343 342 342 342 342 343 344 344 344 345 346 347 349 350 349 348 347 345 344 345 345 348 349
357 353 353 355 356 355 353 353 352 351 350 349 348 346 345 346 346 345 345 346 346 346 346 346 347 347 348 349 351 352 351 351 351 352 353 351 349 351 351 349 348 348 348 347 346 347 348 349 349 348 347 348 349 349 348 347 347 348 349 347 345 344 344 345 346 346 346 347 347 347 348 349 350 350 351 351 350 348 347 348 349 350 350 351 350
357 354 351 353 357 356 354 352 351 351 349 347 348 348 346 345 346 346 346 347 347 347 347 348 349 349 348 348 348 349 348 349 351 351 351 350 348 348 349 349 348 347 347 348 348 348 349 350 350 349 348 348 349 348 348 348 348 348 348 347 346 346 346 347 348 350 349 350 352 351 351 351 351 351 351 351 351 350 350 350 351 352 352 351 350
356 355 353 354 356 356 354 350 348 348 346 343 344 347 345 344 344 345 346 347 350 351 350 350 350 351 350 348 347 347 346 346 348 348 348 348 347 346 346 345 344 344 344 345 346 346 346 348 350 349 348 349 350 350 350 351 351 350 349 349 348 347 347 348 350 351 350 351 353 352 351 352 352 352 352 352 352 351 351 352 352 351 351 350 350
354 353 354 354 354 353 353 352 350 348 345 343 344 345 344 343 343 345 344 345 350 353 351 350 350 350 351 349 348 348 347 347 346 346 346 346 346 345 345 343 342 344 346 345 344 344 343 345 348 349 349 351 351 351 353 353 351 350 352 354 351 347 348 351 352 352 351 352 352 352 352 353 353 352 352 352 352 352 352 352 351 351 350 350 350
353 352 352 352 353 350 349 352 353 350 347 345 344 344 345 345 345 345 344 345 349 350 349 349 349 348 350 350 347 346 347 348 347 347 347 346 346 345 344 341 341 345 347 346 344 344 344 346 348 349 350 352 351 350 351 353 352 352 354 355 351 346 347 351 352 351 351 351 351 351 352 352 353 353 353 353 353 352 352 351 351 351 351 351 351
352 352 351 352 352 350 347 349 352 351 350 349 347 345 346 347 347 347 348 350 351 349 347 348 347 346 348 349 347 345 346 348 348 348 347 347 346 344 344 343 344 346 347 347 347 347 348 349 351 351 350 350 349 347 348 349 350 350 350 349 347 346 347 348 349 349 349 349 349 350 351 351 352 352 352 352 351 351 351 351 351 351 351 352 352
352 352 352 352 352 351 349 348 350 351 351 351 349 348 348 348 348 348 349 351 351 349 347 347 347 348 347 346 346 346 347 349 349 348 347 346 346 345 346 348 348 349 348 348 348 349 350 350 351 350 349 346 344 345 346 346 347 348 348 348 347 348 348 349 349 349 349 349 350 350 350 351 350 350 351 351 352 352 351 351 351 351 351 352 352
351 352 352 351 351 352 351 349 349 349 349 349 348 348 348 347 347 347 348 348 348 347 346 346 349 350 348 346 346 346 347 349 349 347 345 345 346 347 349 351 351 351 351 350 349 349 349 350 350 349 348 346 346 346 346 346 348 349 349 349 349 349 349 349 349 349 348 348 349 349 349 349 350 350 351 351 351 351 351 351 351 351 351 350 350
349 349 349 349 350 351 350 350 351 350 349 349 348 347 348 348 347 348 348 348 347 347 346 346 348 349 349 349 349 348 348 349 348 345 344 345 347 349 350 351 351 351 351 350 350 349 349 349 349 349 348 348 348 348 347 347 348 349 348 348 348 347 347 346 345 345 345 347 347 348 349 350 351 351 351 352 351 351 350 349 348 347 347 347 347
347 347 347 348 349 349 349 350 351 350 349 349 349 348 349 349 349 349 348 347 347 347 347 347 347 347 349 350 349 348 349 349 348 346 346 346 348 349 349 349 350 350 350 350 350 349 349 349 350 349 348 347 346 346 346 344 342 342 342 342 341 340 339 338 338 339 339 341 343 346 349 350 349 348 347 345 343 343 341 339 337 336 336 337 338
344 345 345 346 346 346 346 347 347 347 347 348 348 348 347 347 347 347 346 347 347 346 346 347 347 347 347 347 346 347 348 348 347 347 347 347 347 347 347 348 348 349 349 349 348 347 348 348 348 347 345 343 341 340 339 336 332 331 331 330 329 329 329 329 330 330 328 329 332 335 336 337 336 335 334 330 327 327 326 325 325 325 324 325 326
343 343 343 343 343 343 342 343 343 344 344 345 345 345 344 344 344 344 343 343 343 343 343 343 343 343 343 342 343 344 344 344 346 345 344 343 343 344 345 345 345 346 347 347 346 346 345 344 343 341 337 333 330 330 329 327 324 323 322 322 324 325 324 326 327 323 321 321 322 322 325 327 327 326 324 321 318 319 320 320 320 320 318 319 320
337 339 340 339 339 339 339 339 340 340 340 341 341 340 339 339 339 338 339 339 340 339 339 339 339 339 338 338 340 340 338 337 339 338 337 336 336 336 337 337 337 337 339 339 339 339 337 335 332 329 325 322 321 320 320 319 318 318 317 318 325 328 327 327 325 318 316 319 318 316 320 323 322 320 318 317 319 324 324 319 315 315 315 315 316
333 334 335 336 336 335 335 335 335 334 334 334 334 333 332 331 331 330 330 330 331 331 331 332 333 333 331 331 332 332 331 330 330 329 328 328 328 327 327 328 327 327 327 327 326 326 325 323 321 319 317 316 315 314 315 314 314 315 313 315 324 328 326 325 322 315 312 315 314 314 316 316 315 315 315 319 326 330 326 315 310 311 311 310 312
331 331 331 331 331 331 331 330 330 329 329 330 330 330 330 330 329 329 327 326 326 325 323 323 323 323 323 323 323 323 323 322 323 322 322 323 323 321 321 321 320 319 319 319 318 317 316 315 315 314 313 313 312 313 315 315 314 316 314 316 325 328 323 319 316 312 310 312 310 311 312 311 310 312 312 317 323 323 316 310 309 310 309 309 310
329 329 329 329 328 328 327 327 327 326 325 326 327 328 329 331 331 331 330 331 331 330 327 325 324 324 323 321 322 323 322 321 321 321 320 319 317 316 316 315 315 314 314 313 313 313 312 312 312 311 310 313 316 318 321 320 319 321 320 319 325 328 324 319 316 311 310 310 309 309 310 309 309 310 309 311 313 312 310 310 310 309 309 309 309
327 327 328 328 328 329 327 327 328 326 323 323 322 322 324 326 326 326 328 330 332 332 331 330 329 329 328 326 326 326 325 323 320 318 317 315 313 313 313 312 312 312 311 311 311 311 310 311 312 313 316 320 321 322 323 323 321 324 324 320 322 326 324 320 316 311 309 310 309 309 310 309 309 309 309 310 310 309 309 309 308 308 309 309 311
328 327 327 327 327 327 327 328 328 326 325 324 321 320 320 320 319 320 322 327 330 330 330 330 329 329 329 328 327 327 326 322 318 314 313 313 312 312 312 312 312 311 311 311 311 310 311 314 319 321 322 324 324 322 323 324 322 322 323 321 321 324 323 318 313 310 310 310 309 309 310 311 310 309 309 309 309 308 308 308 308 309 310 311 314
327 327 327 326 326 326 326 327 326 325 325 324 323 323 321 318 318 319 320 324 328 329 329 329 328 327 327 327 327 327 326 324 320 315 313 313 313 312 312 311 311 310 310 310 310 312 315 320 324 323 321 323 324 320 321 324 323 320 321 321 322 325 323 318 312 310 309 309 309 310 312 313 312 310 308 309 308 307 308 309 308 310 312 313 314
327 327 326 325 325 326 326 325 324 325 324 323 323 323 320 316 317 319 319 320 323 325 327 328 327 326 326 326 327 326 326 325 324 319 314 312 311 311 310 310 309 309 309 310 313 318 322 325 325 321 320 323 323 318 318 322 320 317 318 320 322 323 321 315 311 309 307 307 308 310 313 314 312 309 309 309 309 309 309 309 310 312 314 315 316
327 327 326 325 325 326 326 324 324 324 324 322 321 321 319 317 316 317 317 317 318 320 325 327 326 326 326 325 325 325 325 324 323 319 313 311 310 310 309 309 309 309 309 311 315 320 323 325 324 322 321 323 322 319 319 320 317 316 317 318 319 319 317 311 309 308 307 307 307 309 313 313 310 310 311 312 312 313 314 314 315 316 317 318 317
326 327 327 325 325 326 326 325 325 324 324 323 322 322 321 320 318 317 317 317 317 318 322 323 322 322 322 320 318 319 320 320 318 315 311 310 310 309 309 309 309 309 309 311 316 320 321 322 322 321 321 321 320 319 318 317 315 315 316 316 316 316 313 310 310 309 307 306 307 310 312 311 309 310 311 311 311 313 314 315 315 315 315 315 314
326 326 327 326 326 326 326 326 326 325 324 324 324 324 323 322 321 319 318 317 316 316 317 317 316 317 317 316 315 315 315 314 314 312 310 310 310 309 310 313 314 314 313 314 316 318 319 319 319 319 318 317 317 316 316 316 315 315 314 314 314 313 311 311 310 309 307 306 308 312 314 313 312 312 311 310 310 311 312 313 312 312 312 311 309
325 325 325 325 325 326 325 325 326 325 324 325 325 324 323 323 322 321 320 320 320 318 316 315 315 314 313 313 314 314 313 312 311 310 310 310 309 309 312 317 319 318 318 317 317 317 316 317 317 317 316 316 316 315 315 315 315 314 313 313 312 310 310 310 309 308 308 307 309 313 315 315 315 314 312 311 311 310 311 312 313 314 313 311 308
324 324 324 323 324 325 325 325 325 324 324 324 323 323 323 322 322 321 321 321 322 320 319 319 318 315 313 312 312 311 311 311 310 310 309 309 308 308 312 317 319 319 318 318 317 315 313 313 313 314 314 314 314 313 313 313 313 313 313 312 310 310 312 312 311 311 311 310 311 314 315 315 314 313 312 311 310 310 310 311 312 311 310 309 308
322 323 323 323 323 323 323 323 323 322 322 322 322 321 321 320 320 321 320 320 320 320 319 319 318 316 316 315 313 311 310 310 311 310 308 307 307 309 313 317 318 318 318 318 316 315 314 313 312 312 312 311 311 310 310 311 311 312 311 309 309 311 312 312 312 313 312 312 313 314 313 313 312 312 311 310 310 310 310 309 308 308 308 308 309
319 321 321 322 322 322 322 322 322 321 321 321 321 320 319 319 319 319 319 319 319 319 319 319 317 317 318 317 314 311 310 312 314 315 312 310 311 314 316 317 317 317 318 317 315 315 315 314 314 313 312 311 311 310 309 309 310 310 309 309 309 311 311 311 312 312 311 311 312 312 311 311 311 311 310 310 309 309 309 308 307 308 308 308 308
317 319 320 321 321 321 321 321 321 320 320 320 319 318 318 318 318 318 318 318 318 318 318 318 317 317 318 317 313 310 311 314 317 318 317 315 316 316 316 316 316 316 316 315 315 314 313 313 312 312 311 310 310 310 310 310 310 310 309 309 310 310 310 311 311 310 310 310 310 310 310 310 310 310 309 309 308 307 307 306 307 308 308 308 308
316 317 318 319 320 320 320 320 319 317 317 317 317 317 317 317 317 317 317 317 317 317 317 317 317 317 317 317 314 311 312 315 317 317 317 316 316 315 315 315 315 314 314 313 313 312 312 311 311 310 310 309 309 309 309 309 309 309 309 309 309 309 309 310 309 309 309 308 308 308 308 309 308 308 308 307 307 306 305 304 304 306 307 307 307
314 315 315 317 318 319 319 318 317 315 315 316 316 316 316 316 316 316 316 316 317 316 316 316 316 316 316 317 314 311 312 315 316 315 315 315 314 314 314 313 312 312 312 312 311 310 310 309 309 309 309 309 308 308 308 307 308 308 308 308 308 308 308 308 308 308 307 307 307 307 307 306 306 306 305 305 304 304 303 302 302 303 304 305 306
313 314 313 314 315 317 317 315 314 315 315 315 315 315 315 315 315 315 315 315 316 316 315 315 315 314 314 314 310 307 309 313 313 313 314 314 313 312 312 311 311 311 311 310 309 309 308 308 308 307 307 307 306 306 306 306 306 306 306 306 306 306 306 306 306 305 305 305 305 304 304 303 303 303 302 302 302 301 301 301 301 302 303 304 305
313 313 312 312 313 314 314 313 313 314 314 315 315 314 315 315 314 314 314 314 315 315 315 314 314 314 313 310 305 303 307 311 311 311 312 312 311 311 311 311 310 310 309 309 308 308 307 307 306 306 305 305 305 305 304 304 304 305 304 305 305 305 305 304 304 304 304 303 302 302 301 301 300 300 300 300 300 300 300 300 301 302 303 304 304
313 313 312 311 312 313 313 312 313 313 313 314 314 314 314 314 313 313 313 313 313 314 314 313 313 313 312 309 306 306 309 311 311 311 311 310 310 310 309 309 309 308 308 307 307 306 306 305 305 304 304 303 303 303 303 303 303 302 302 302 303 302 302 302 302 302 302 301 300 300 299 299 299 299 299 299 299 299 299 300 301 301 302 302 303
312 312 312 310 310 311 312 312 312 313 313 313 313 313 313 313 312 312 313 313 312 312 312 313 313 312 311 310 309 309 310 310 310 309 309 308 308 308 308 307 307 307 306 305 305 305 304 304 303 303 302 301 301 301 301 301 301 300 300 301 301 301 301 301 300 300 300 299 299 299 299 299 299 298 298 298 298 298 298 299 300 300 301 301 302
310 311 311 310 310 311 312 312 312 312 312 312 312 312 311 311 312 312 312 312 312 311 311 312 311 310 309 309 309 309 308 308 308 308 307 306 306 306 305 305 305 304 304 303 303 303 302 302 301 301 300 300 300 300 300 300 299 299 299 299 299 299 299 299 299 299 298 298 298 298 298 298 298 298 297 297 297 297 298 298 299 300 300 301 301
309 310 310 311 311 312 312 312 312 311 311 311 311 311 311 311 311 311 311 311 312 311 311 310 310 309 308 308 308 308 307 307 307 306 305 305 304 304 303 303 303 302 301 301 301 301 300 300 300 300 300 299 299 299 299 299 299 298 298 299 299 299 298 298 298 298 297 297 297 297 297 297 297 297 297 297 297 297 297 298 298 299 300 300 301
309 311 310 311 311 312 312 311 311 311 311 311 311 311 311 311 311 311 310 310 309 309 309 309 309 308 309 308 307 306 306 305 305 304 304 304 304 303 302 302 301 301 300 299 299 299 299 299 299 299 299 299 298 298 298 298 298 298 298 298 298 298 298 297 297 297 297 297 297 297 297 297 297 297 297 297 297 296 297 297 298 299 299 300 300
308 310 311 311 311 311 311 311 311 310 311 311 311 311 310 310 310 309 309 308 307 307 308 308 308 308 308 306 305 305 304 304 303 303 303 303 302 302 301 301 301 300 299 299 299 299 299 299 299 299 298 298 298 298 298 298 297 297 297 297 297 297 297 297 297 296 296 296 296 296 296 296 296 296 297 297 297 296 296 297 297 298 299 299 299
308 309 310 311 310 310 310 310 310 310 310 310 310 310 309 309 308 308 308 308 307 307 307 308 307 306 306 305 304 304 303 303 302 302 302 302 301 301 301 301 300 300 299 299 299 299 298 298 298 298 298 298 298 297 297 297 297 297 297 297 296 296 296 296 296 296 296 296 296 296 296 296 296 296 296 296 296 296 296 297 297 298 298 299 299
309 309 310 310 310 309 309 309 308 308 309 309 308 308 308 308 308 307 307 307 307 307 307 306 306 305 305 304 303 303 302 302 301 301 301 301 301 301 300 300 299 299 299 298 298 298 298 298 298 298 297 297 297 297 297 297 297 296 296 296 295 295 295 295 295 296 296 295 295 295 295 296 296 296 296 295 295 296 296 297 297 298 298 298 298
Wind_Speed
22 22 20 19 18 18 18 17 17 18 16 15 15 13 12 13 12 12 12 12 12 12 11 11 10 10 9 10 9 8 8 8 8 8 7 8 8 8 8 8 7 6 6 6 7 7 7 9 9 7 7 7 6 6 5 5 7 9 9 8 7 8 8 8 11 13 15 14 13 11 10 12 13 13 13 15 15 15 15 16 17 16 17 18 18
23 22 21 21 20 19 18 18 18 18 17 16 16 15 14 14 13 12 12 12 11 11 11 11 11 11 10 10 11 11 11 10 10 9 8 8 9 8 8 8 7 7 7 8 7 7 8 10 9 8 7 7 7 5 4 5 7 9 9 8 8 8 7 8 11 13 16 16 14 12 11 11 13 13 14 14 15 15 14 15 16 16 16 17 16
22 21 21 21 20 20 19 19 19 18 17 17 16 15 15 16 15 14 13 12 12 12 12 11 11 12 12 12 12 13 12 10 10 10 8 8 8 8 8 9 8 7 8 8 7 8 8 9 8 7 6 6 7 7 6 7 7 7 9 9 10 10 9 10 11 13 16 17 15 14 13 13 14 14 13 12 13 14 14 15 16 15 16 17 16
23 22 21 21 20 20 20 19 19 19 18 17 17 16 16 16 15 15 15 13 13 13 12 12 13 12 12 13 13 12 12 10 10 11 10 9 9 8 9 10 9 8 7 8 7 8 8 8 8 7 6 7 9 10 9 8 7 8 9 9 10 10 9 10 12 13 14 16 16 16 16 16 15 14 14 13 13 14 14 15 16 15 16 18 18
24 23 22 22 21 20 20 19 19 19 18 18 17 17 16 16 15 15 15 15 15 13 11 12 15 13 12 12 13 12 12 11 11 11 10 9 9 8 9 9 9 9 9 9 8 8 9 9 8 8 8 8 8 9 8 7 8 9 9 7 8 10 9 9 11 12 13 15 16 16 15 16 15 14 15 16 15 15 16 16 16 16 17 18 19
25 24 23 23 23 21 21 20 19 19 19 17 16 17 17 16 16 15 15 17 17 16 13 13 14 13 11 12 12 11 11 11 10 10 10 10 9 8 9 8 8 9 9 8 9 10 10 9 9 9 8 8 8 8 8 9 10 10 8 8 9 10 10 10 11 11 12 14 15 15 14 15 15 15 15 15 15 16 17 18 18 18 17 17 20
25 25 25 24 24 24 22 21 20 19 19 18 16 16 17 17 16 15 15 16 17 16 14 14 13 12 12 12 12 11 10 10 10 10 10 10 10 10 10 9 9 10 9 8 9 10 10 10 10 10 10 9 9 9 9 10 10 9 8 9 9 9 10 10 11 11 12 13 14 15 14 14 14 15 15 16 16 16 18 21 21 18 15 17 21
24 25 26 25 25 25 24 23 21 19 18 18 17 16 16 17 16 14 14 15 16 16 15 15 14 14 12 12 13 12 11 11 10 10 10 11 11 11 11 10 11 11 10 8 8 9 10 11 10 10 11 11 9 9 9 9 9 9 8 8 9 10 11 12 12 12 13 14 14 15 15 15 15 16 17 17 17 18 19 19 18 16 16 20 24
24 25 26 25 24 25 25 24 22 20 18 17 18 18 16 16 17 15 13 14 15 15 14 13 14 15 13 12 12 12 12 12 12 10 11 11 11 11 11 12 12 12 12 11 9 8 9 10 9 10 11 10 11 12 11 10 11 12 12 12 13 14 14 14 14 14 14 15 16 16 17 17 16 16 16 16 17 18 18 16 16 19 22 25 25
26 26 27 26 24 24 24 24 23 23 20 17 19 20 17 15 16 16 14 14 14 14 14 13 13 13 13 13 13 13 13 14 13 11 11 11 10 10 11 11 12 12 12 11 11 9 9 9 10 11 11 11 13 13 12 12 14 16 16 15 15 15 15 15 15 15 15 16 16 16 17 16 16 16 17 16 16 17 18 20 21 24 25 26 27
29 29 28 27 25 24 23 21 21 23 22 18 18 21 20 16 14 16 16 15 14 15 15 14 13 13 13 13 14 14 15 16 14 12 12 12 11 11 11 10 10 11 10 10 10 10 9 9 10 12 11 12 14 13 12 13 15 15 14 13 13 13 13 14 14 14 15 16 16 16 17 17 17 17 17 17 18 19 21 22 23 24 25 27 30
29 30 29 28 26 25 23 20 18 18 20 19 18 20 23 21 18 17 17 17 17 17 16 15 15 14 13 12 14 15 16 16 14 13 13 14 13 13 12 10 9 10 9 9 9 10 10 11 11 11 9 9 10 11 12 13 13 13 12 12 12 13 13 14 15 16 16 17 18 18 17 18 18 19 19 20 21 22 22 22 23 24 26 29 32
27 28 28 27 26 25 24 22 19 16 16 20 22 24 25 24 24 22 20 19 19 19 18 17 16 15 13 12 15 16 15 14 15 15 15 16 14 14 14 12 11 12 10 9 10 11 11 11 13 13 12 10 10 11 12 13 13 14 14 13 13 12 12 13 15 16 17 18 19 19 18 18 19 19 20 20 21 22 23 24 25 26 29 31 34
23 22 22 23 24 24 23 22 23 22 21 23 25 26 25 24 25 26 25 22 19 18 19 18 16 16 15 14 16 17 16 16 17 17 17 17 16 16 15 14 14 12 10 11 12 14 14 13 13 15 15 13 11 11 12 13 14 14 14 13 14 13 13 14 15 16 16 16 17 18 17 16 18 20 20 20 21 23 26 28 29 30 32 32 32
20 18 17 17 18 21 21 21 24 27 27 26 27 27 26 25 24 24 25 24 21 18 18 17 16 16 16 15 16 18 17 17 18 18 18 17 17 17 16 15 14 11 10 13 16 17 17 17 17 17 16 14 13 13 13 14 15 15 14 14 16 16 13 12 13 15 15 15 16 17 16 16 18 20 21 21 23 25 27 28 29 30 30 30 30
18 18 17 14 14 18 21 22 24 26 28 28 29 28 27 27 26 25 24 24 23 21 20 18 17 16 16 17 17 18 19 19 19 19 19 18 18 17 16 15 13 11 12 16 17 18 18 18 19 18 16 15 15 15 16 16 15 16 17 17 19 19 15 13 15 17 18 18 18 18 18 18 20 21 22 23 25 27 27 27 27 28 28 28 27
15 16 16 14 14 17 21 22 22 24 26 27 27 26 25 25 25 25 23 22 22 22 22 21 20 19 19 19 19 19 20 21 21 21 20 20 18 17 16 15 13 14 16 18 18 18 18 17 17 16 15 15 16 17 17 17 17 18 19 20 21 20 19 19 20 21 21 21 22 22 22 21 21 23 24 25 26 26 25 26 26 26 26 25 24
14 15 15 16 15 15 18 20 20 22 24 24 23 23 23 23 23 24 23 22 21 20 21 22 23 23 22 22 22 22 21 21 21 20 20 20 18 17 16 15 14 15 16 16 16 17 16 16 16 16 17 18 18 19 19 20 20 20 21 21 21 21 21 22 23 22 22 22 22 22 22 22 22 22 23 22 22 21 21 23 23 23 23 23 22
13 12 12 15 16 15 16 18 19 20 21 20 22 23 23 23 22 22 22 22 22 19 18 21 25 25 24 25 25 25 24 22 21 20 19 18 17 16 16 16 16 16 17 16 16 15 15 16 18 19 20 20 21 21 21 21 20 20 20 20 20 20 20 21 22 22 22 22 21 20 20 19 19 18 18 17 17 18 19 19 20 20 20 21 20
11 11 9 10 13 14 15 16 17 18 19 19 21 23 24 24 24 23 22 21 20 19 19 22 25 25 25 27 27 26 25 23 22 21 19 18 17 16 17 16 16 17 18 17 15 15 16 18 18 19 20 21 21 21 21 19 18 17 17 18 18 18 19 19 18 19 19 18 17 15 15 14 14 13 13 13 14 16 18 18 18 18 19 20 20
7 7 5 6 9 13 14 15 15 17 18 19 20 21 21 22 21 21 20 19 19 18 19 21 24 26 26 26 26 25 22 20 20 20 18 16 15 14 14 14 15 15 16 15 13 14 17 18 17 16 16 16 17 17 16 14 12 12 12 13 14 14 15 15 15 14 14 13 12 11 11 12 12 12 12 12 13 15 17 17 17 17 18 19 20
9 9 10 10 9 8 10 12 12 13 14 16 17 17 15 14 14 14 15 16 17 16 16 18 22 25 25 21 20 19 19 17 17 17 15 12 11 11 11 12 13 13 13 13 14 14 13 13 13 13 13 14 14 13 12 10 8 8 8 9 10 10 11 11 11 11 11 11 10 10 10 11 12 11 12 12 12 13 14 14 14 15 15 16 17
11 11 13 15 15 13 11 10 11 12 12 12 13 13 11 10 9 9 10 11 12 13 13 14 17 19 17 14 13 13 13 13 12 11 10 10 9 9 10 10 10 10 9 10 11 11 10 10 11 11 12 12 11 9 9 8 7 7 8 9 9 10 10 9 10 12 12 11 11 11 11 11 12 12 13 14 14 13 12 12 13 15 15 15 15
10 12 15 17 18 17 14 13 13 13 12 12 11 11 10 10 10 10 10 10 11 11 11 10 11 11 11 11 11 9 8 7 8 8 8 7 8 8 9 8 7 6 5 6 7 7 8 8 8 8 8 7 7 7 7 7 7 7 8 9 8 9 9 9 11 13 13 12 12 12 11 11 12 13 14 15 15 14 12 13 15 16 16 16 15
10 11 12 13 14 15 15 15 16 15 14 13 13 13 12 11 11 11 11 11 10 10 10 9 9 9 10 11 11 10 8 8 8 8 8 8 7 8 8 8 6 4 4 4 4 4 4 4 4 5 6 7 8 8 8 8 8 8 8 7 7 8 9 10 13 14 13 12 13 12 12 12 13 14 14 14 13 12 14 17 18 17 18 17 17
12 11 10 10 11 12 13 15 14 14 14 14 14 14 13 12 12 12 11 11 10 9 9 8 7 6 7 8 9 8 7 8 8 7 7 7 7 6 6 6 5 4 4 3 3 3 3 4 4 5 6 7 8 8 9 9 8 8 8 7 6 9 12 13 13 13 13 13 13 13 13 14 14 14 14 12 12 13 17 19 19 18 18 17 17
11 10 10 10 10 9 10 11 10 9 10 11 13 13 11 11 11 10 11 11 9 7 6 5 4 3 3 4 5 5 5 5 5 4 4 4 4 4 4 3 3 2 2 3 3 3 4 5 5 5 5 6 7 8 10 10 9 9 9 7 5 9 13 13 13 13 12 13 13 13 13 13 13 14 14 13 14 16 18 18 18 18 17 17 16
8 9 8 8 8 8 10 10 8 5 4 6 8 9 9 8 9 9 10 13 12 8 6 6 5 4 5 6 6 6 5 3 3 3 4 3 2 2 2 1 1 2 2 3 3 4 4 4 4 3 4 5 6 7 8 8 6 6 7 6 4 8 11 11 12 12 11 12 12 12 12 13 13 13 14 14 15 17 17 17 18 18 18 17 17
7 7 6 6 8 7 8 7 4 1 1 2 4 6 7 6 6 7 8 11 12 11 9 8 8 7 7 7 8 7 4 2 2 2 1 1 1 1 2 2 2 2 2 2 2 1 1 1 3 3 4 4 3 3 5 5 4 2 4 4 4 7 10 11 11 12 11 12 12 12 13 14 14 15 16 16 16 17 18 19 20 20 20 20 18
6 6 5 6 7 6 6 7 4 2 1 2 5 7 5 3 6 8 9 10 11 11 10 10 9 8 8 8 9 8 6 4 1 2 3 3 3 3 3 3 3 2 1 1 2 4 5 5 3 0 2 3 1 2 2 3 4 2 2 3 4 7 10 11 12 12 11 11 12 12 12 14 14 16 18 18 18 19 18 19 19 20 20 20 19
6 5 5 7 6 4 5 7 5 2 1 1 4 6 4 2 6 9 9 10 12 11 11 11 10 9 9 9 9 9 8 8 6 6 6 5 4 3 3 2 1 0 2 3 5 6 7 6 2 1 3 3 3 3 1 3 5 3 2 2 3 6 11 12 13 13 11 12 12 11 12 13 15 17 18 18 19 19 18 19 19 18 18 19 19
5 5 5 7 6 4 5 6 5 4 4 5 2 3 4 2 5 7 7 9 11 11 12 12 11 10 9 9 10 10 10 10 10 9 8 6 4 3 2 1 1 1 2 4 6 7 8 6 2 2 4 3 3 2 1 3 4 4 4 3 4 7 11 13 14 13 13 13 13 12 12 14 16 17 16 16 17 18 18 18 18 17 17 18 19
5 6 6 7 7 5 5 5 4 3 2 2 1 1 2 3 3 5 7 8 9 11 12 12 12 12 12 12 12 12 11 11 11 9 8 6 3 2 2 2 2 2 2 4 5 6 6 5 2 2 2 1 1 2 3 5 5 4 5 5 6 9 11 12 12 13 13 13 12 11 13 15 16 16 15 16 16 16 16 17 17 17 18 19 21
6 8 9 9 9 8 6 6 4 2 2 3 3 2 2 3 4 4 4 5 7 8 10 10 11 13 13 12 12 12 11 11 10 9 7 4 2 1 2 4 4 4 4 4 5 5 4 2 1 1 1 1 2 3 3 4 5 5 6 6 8 10 10 10 12 14 14 12 10 11 13 15 15 16 16 17 16 16 16 17 18 18 19 21 23
6 7 8 9 10 9 7 6 5 4 3 4 4 2 3 4 3 4 3 3 5 6 5 5 7 9 10 11 11 11 10 9 7 6 4 2 1 1 4 6 6 5 4 1 1 2 1 1 1 1 1 1 2 3 3 4 5 6 7 8 10 10 9 11 12 14 14 12 10 11 13 14 14 16 17 17 17 17 17 16 16 17 18 20 23
9 8 8 9 9 7 6 6 7 6 6 7 6 3 3 5 5 2 2 2 3 6 7 8 9 7 6 7 8 8 7 6 4 3 2 1 0 3 5 5 5 4 3 5 6 4 3 4 3 3 4 3 4 4 4 5 6 6 8 10 11 10 10 12 13 13 14 13 12 11 12 13 15 17 18 18 18 18 16 15 16 18 19 21 21
12 12 12 11 10 7 6 7 9 8 7 7 8 6 5 5 4 3 4 3 2 4 7 9 9 8 6 6 5 3 1 1 3 3 3 1 2 4 5 5 6 4 2 5 6 6 6 6 5 4 5 5 6 7 6 6 6 7 9 10 10 10 10 11 12 12 13 12 10 10 11 13 16 17 17 17 16 15 15 17 19 20 20 20 19
15 15 14 14 12 11 9 8 8 9 9 9 10 8 5 4 4 4 5 5 4 4 4 6 8 8 7 6 2 3 6 7 7 7 5 4 5 4 4 4 4 3 1 2 4 5 4 4 4 4 5 6 7 8 8 7 8 9 10 11 9 9 10 10 10 11 11 8 8 10 11 12 14 15 14 14 14 15 17 19 20 21 22 21 19
15 17 17 15 14 13 11 8 6 6 8 9 10 8 7 6 7 6 6 6 6 6 5 3 3 2 3 2 1 5 9 9 8 8 7 6 4 2 1 3 3 2 2 2 2 1 1 2 5 6 7 7 7 7 7 7 8 9 10 10 9 9 8 8 9 11 12 12 12 11 10 11 14 16 16 18 19 20 21 20 18 18 21 22 22
11 12 14 16 16 14 13 11 8 5 6 9 10 10 9 8 7 7 6 6 7 6 5 5 7 9 10 10 7 3 6 10 10 6 3 2 2 1 2 3 2 1 1 1 3 3 2 4 5 6 7 7 6 6 5 6 6 7 8 8 9 9 8 8 8 9 10 11 10 9 10 14 17 19 20 21 22 22 22 20 18 18 19 19 21
9 8 10 14 17 16 15 13 10 6 6 9 11 10 9 8 8 8 7 6 7 7 6 8 11 11 12 15 14 9 6 11 12 7 4 3 2 1 1 1 1 1 1 2 4 4 3 4 4 4 5 5 5 6 6 6 6 6 8 9 10 10 10 11 12 13 12 11 11 12 15 17 19 21 22 24 25 26 25 24 23 22 20 19 19
9 9 10 12 15 17 15 11 9 8 8 10 11 10 10 10 9 9 8 7 7 7 7 9 12 12 12 13 13 8 10 12 8 5 4 4 3 2 2 3 2 1 1 1 3 3 3 3 4 5 6 7 8 9 8 7 6 6 6 7 9 9 9 12 15 16 16 16 17 19 21 22 22 23 25 26 27 28 28 27 25 21 19 19 18
8 9 10 10 13 15 12 8 8 10 11 11 11 10 10 10 9 9 8 8 7 7 6 8 10 10 9 8 4 4 10 9 4 3 4 4 3 3 3 1 4 6 5 2 2 2 2 2 4 5 7 7 8 8 7 7 8 9 8 7 9 11 12 14 16 18 19 20 21 23 23 23 23 24 25 25 25 25 24 24 22 20 19 19 19
10 8 9 8 12 16 14 9 9 11 11 10 11 11 11 10 9 8 8 8 8 7 6 5 7 8 7 4 4 7 8 6 4 5 5 4 4 5 3 5 10 12 10 8 7 6 5 4 5 7 8 7 7 8 8 9 11 12 10 10 12 14 15 16 18 20 22 23 24 24 25 25 25 27 28 26 24 23 22 21 20 20 20 21 20
13 9 6 7 11 14 13 10 9 11 11 11 11 10 10 10 9 8 7 7 8 7 6 6 5 3 1 3 4 5 5 4 4 5 5 5 6 7 6 9 13 13 10 9 8 7 7 7 8 9 10 9 9 9 10 12 13 12 11 12 14 15 16 18 19 20 23 24 25 26 27 27 27 27 27 26 25 24 22 21 20 21 22 22 23
15 10 7 8 10 11 11 10 11 12 12 11 11 10 10 11 10 8 7 7 7 7 6 6 5 4 3 3 3 3 4 4 3 3 6 8 8 8 10 13 15 13 11 9 8 8 8 7 8 8 9 9 10 10 10 11 12 12 13 14 15 16 18 19 20 21 22 24 25 26 26 26 25 24 24 24 24 23 21 20 20 21 21 22 23
13 10 8 9 10 10 11 12 12 12 12 12 11 10 10 9 9 9 9 10 9 7 5 5 4 3 3 4 4 4 4 4 4 5 6 6 6 8 11 13 14 13 11 10 9 8 8 7 6 7 8 9 10 10 11 12 12 13 14 16 16 16 17 18 19 20 21 21 22 23 23 24 24 23 23 23 24 23 21 20 20 20 21 21 22
12 9 9 10 11 11 12 12 12 13 13 11 10 9 8 8 9 9 9 10 10 8 5 4 4 4 5 6 5 3 3 4 5 4 2 2 5 9 11 12 12 12 10 8 7 7 7 6 7 7 8 9 9 9 10 11 11 11 13 15 15 15 15 16 17 18 19 19 19 21 21 22 23 23 23 23 23 22 20 20 20 20 21 21 22
14 11 10 10 11 11 12 12 12 13 12 10 10 11 10 9 9 8 6 6 8 7 5 4 5 6 5 5 4 3 4 4 4 3 3 5 9 11 11 11 10 9 8 6 5 5 6 6 6 7 7 7 8 8 8 9 9 9 12 15 15 15 16 17 16 16 17 17 17 19 20 21 21 22 21 21 21 20 20 20 20 21 21 22 22
14 12 11 11 11 12 12 12 11 11 10 10 11 12 11 9 8 8 6 6 6 6 6 5 5 4 3 3 4 4 5 5 4 4 6 7 7 7 7 8 7 6 5 5 5 6 5 4 5 6 6 7 7 7 7 8 9 11 13 14 15 16 18 18 17 16 16 17 17 18 19 19 20 20 20 19 19 19 19 20 20 21 21 22 22
12 12 11 11 11 11 11 12 11 10 10 10 10 10 10 9 8 8 8 7 6 6 6 5 5 4 4 5 6 7 7 7 6 6 6 5 3 3 5 6 5 5 6 6 6 6 5 4 4 5 5 6 7 7 7 9 12 13 14 15 17 18 18 18 17 17 17 18 20 20 20 19 19 19 19 18 18 18 19 20 19 20 21 22 22
Wind_Direction
193 193 188 188 193 198 195 191 189 187 189 191 188 193 195 189 192 195 194 200 203 206 204 195 198 205 203 195 193 214 222 201 209 225 213 213 217 208 219 238 246 250 245 234 230 232 245 261 265 264 268 271 261 250 250 267 283 289 290 294 292 288 290 287 285 292 299 305 310 312 309 307 311 312 307 305 305 307 311 315 318 326 336 335 324
196 194 190 190 193 197 195 194 194 190 192 195 191 195 198 193 193 195 198 200 199 207 208 199 199 198 198 198 192 208 225 210 207 223 222 222 227 222 229 245 249 243 247 250 240 234 242 253 264 274 275 283 293 288 268 261 267 275 282 285 286 286 286 286 286 288 294 302 309 311 310 308 305 301 300 303 308 315 322 322 320 322 323 315 309
199 197 194 196 196 195 194 196 197 194 196 199 197 200 202 198 194 192 197 200 199 207 206 200 209 205 196 201 201 207 220 218 212 217 222 230 230 224 227 239 250 250 249 254 252 250 252 256 265 272 269 277 289 287 264 250 253 261 263 260 259 260 262 273 282 287 293 300 308 314 316 311 306 308 314 313 309 313 316 312 309 311 313 313 320
201 200 195 197 199 197 196 198 199 198 199 200 200 203 204 202 197 195 198 198 200 210 204 194 211 216 202 203 210 213 218 221 220 217 219 231 235 232 229 230 242 255 255 252 254 258 261 263 267 267 256 249 256 263 263 259 258 259 263 268 273 274 273 274 279 284 291 300 308 315 317 318 323 329 328 320 313 312 310 307 309 316 325 332 336
200 203 198 196 198 199 200 200 200 202 201 201 202 203 206 206 200 197 203 203 199 203 202 199 211 218 211 210 216 220 222 224 225 220 220 228 233 237 239 239 247 254 256 257 256 255 257 260 264 263 256 248 251 264 273 273 270 266 266 268 274 279 279 279 284 289 295 301 307 313 320 327 330 328 324 321 318 316 317 322 328 333 338 338 334
202 205 203 200 199 200 202 202 203 204 204 204 204 204 209 212 206 201 205 208 203 198 198 208 218 220 216 216 220 221 221 225 227 223 224 228 229 234 238 239 246 252 255 259 262 264 267 268 269 269 268 263 261 264 265 263 268 272 272 271 272 276 279 282 288 292 296 303 308 314 322 327 321 317 321 324 320 319 327 334 337 339 338 331 325
204 206 206 204 203 201 203 204 204 205 206 206 205 207 215 219 216 212 210 212 211 204 196 203 221 229 221 217 223 225 221 224 229 226 225 228 229 233 239 240 241 247 251 251 254 263 269 269 270 276 281 277 268 266 267 269 277 285 283 282 286 288 289 292 295 295 296 301 307 310 314 316 316 319 326 331 329 327 329 327 326 330 327 317 317
203 207 207 208 208 205 204 205 205 206 210 210 206 206 216 222 223 222 219 214 212 212 205 200 213 229 228 217 219 225 225 225 230 229 225 228 231 234 239 243 245 249 254 252 249 256 265 268 269 273 277 277 268 265 264 262 272 281 280 279 282 285 289 292 295 298 299 302 306 310 313 317 324 328 328 329 329 329 329 325 322 320 313 309 314
203 209 209 209 211 209 206 205 204 204 209 214 212 207 210 221 227 230 230 219 211 217 221 213 212 221 226 224 224 229 230 228 231 234 229 231 237 238 237 240 247 251 254 253 250 253 262 268 269 265 269 272 267 266 269 270 277 285 284 279 279 284 291 296 298 302 303 304 307 309 311 315 319 320 317 318 322 325 324 320 312 308 308 309 313
205 210 212 212 213 211 209 208 206 203 203 211 215 210 207 214 224 227 228 222 214 218 227 228 224 223 227 229 226 227 232 230 230 232 232 236 241 241 240 244 248 252 254 254 254 257 262 270 276 274 273 273 269 268 274 280 284 287 286 284 284 288 295 300 304 309 309 308 310 309 307 306 307 308 309 314 317 313 309 306 305 307 310 312 314
207 209 211 212 213 212 209 208 208 206 204 208 216 216 213 212 215 215 215 216 215 215 218 223 225 227 233 233 224 226 234 235 233 233 235 241 243 240 247 256 255 255 260 261 261 266 268 271 281 287 286 282 279 279 283 283 284 286 287 286 288 292 297 302 307 311 311 311 311 311 309 308 310 312 314 314 310 305 304 306 308 312 315 316 316
211 213 213 212 213 214 211 206 207 207 202 203 208 214 216 215 212 210 210 214 216 215 214 217 216 217 226 231 228 234 239 235 233 236 240 245 244 240 247 258 260 263 270 277 287 296 291 285 287 288 283 278 276 276 278 280 282 284 283 282 286 292 296 299 303 306 308 309 310 312 314 314 315 316 314 310 307 306 308 308 310 312 313 314 313
215 217 219 218 216 215 211 207 212 215 209 209 211 213 217 217 214 211 211 214 218 220 219 220 220 218 219 228 236 240 240 235 234 238 243 248 248 245 248 255 260 265 270 279 291 295 288 282 280 272 264 263 266 264 266 273 278 278 279 281 284 289 291 296 305 311 312 310 308 309 311 312 311 310 307 305 305 308 308 307 308 309 309 310 311
219 218 219 221 220 218 214 211 216 221 221 223 223 221 221 223 220 217 217 217 219 223 221 216 219 220 218 227 238 239 236 234 236 239 241 246 249 250 254 259 264 271 274 270 271 273 271 269 267 266 266 268 268 265 266 271 274 273 274 280 287 291 297 305 310 309 306 303 298 299 302 302 300 299 298 298 301 303 304 304 305 307 308 308 309
227 228 223 220 219 219 217 212 213 218 222 225 228 228 226 227 225 222 224 223 220 225 226 218 214 216 216 222 231 235 234 233 234 236 239 244 248 251 257 261 262 267 270 263 260 262 266 268 266 265 267 270 269 269 271 274 276 273 270 275 283 289 296 304 301 295 294 294 292 294 294 290 286 287 289 291 294 296 298 301 304 306 307 307 309
231 232 226 216 208 213 217 214 212 217 220 221 225 227 226 226 226 224 226 226 219 221 230 230 224 222 224 227 230 234 237 239 240 239 239 242 246 250 256 258 251 244 247 251 253 256 261 266 268 264 262 267 271 273 274 277 277 274 272 275 281 286 287 283 276 274 276 277 280 285 287 284 282 283 286 289 292 295 298 302 304 306 307 310 314
226 224 219 210 205 211 219 221 217 216 216 215 217 221 223 223 224 223 224 224 218 216 224 232 233 229 229 233 236 237 238 240 242 242 240 241 244 247 250 247 239 236 241 245 249 255 260 265 268 267 266 270 274 274 273 274 276 275 277 280 283 287 288 284 279 277 277 275 276 279 283 284 285 286 289 292 295 300 305 308 310 310 312 316 321
222 221 217 212 206 205 214 219 215 211 211 210 210 214 220 222 223 223 223 225 225 219 218 228 234 230 227 233 239 240 240 239 239 241 241 240 241 242 242 240 236 239 245 249 250 254 259 262 264 268 273 276 277 276 274 275 278 280 282 284 286 288 289 288 288 288 286 284 283 284 287 290 291 292 294 297 302 307 312 313 313 314 316 321 324
224 230 227 219 212 209 211 213 212 213 214 211 208 213 220 224 225 226 227 229 232 226 217 223 231 231 230 233 235 237 238 236 236 240 243 240 237 238 239 240 241 243 249 253 255 259 263 264 265 268 271 272 272 272 274 278 282 284 285 286 288 290 290 291 293 295 294 294 294 295 295 295 295 298 301 304 307 310 312 314 318 321 325 328 329
226 239 243 232 222 219 214 204 199 207 213 210 208 212 219 224 224 225 226 228 231 230 224 223 229 234 233 230 229 229 230 229 232 240 246 246 243 244 245 244 242 242 247 251 254 259 262 263 264 266 268 270 271 275 280 284 286 286 287 288 290 292 294 297 299 301 304 307 308 308 306 304 306 312 315 314 313 311 313 318 324 326 326 326 329
177 197 199 199 206 213 215 207 196 197 204 207 208 209 214 218 218 219 223 227 231 232 228 224 227 230 228 223 219 219 221 223 229 238 246 248 246 245 245 243 241 240 244 246 248 254 260 262 261 262 268 276 280 282 285 289 294 296 297 299 301 303 306 307 309 313 316 318 316 312 310 311 315 320 324 326 324 318 317 321 326 328 328 327 328
133 145 145 150 162 178 198 204 196 186 188 198 204 205 206 210 211 211 213 219 221 219 215 215 216 215 212 209 208 211 215 221 227 234 240 242 241 238 233 233 237 237 238 242 243 246 253 258 259 264 277 289 293 293 293 301 316 321 321 321 321 321 320 318 323 333 338 336 331 326 324 325 327 331 335 339 341 334 330 333 339 341 341 340 337
117 123 123 125 124 123 130 150 162 165 168 177 185 185 179 178 181 178 174 180 183 178 180 193 200 198 194 193 197 203 208 211 216 221 224 220 217 217 215 219 230 233 231 236 242 244 248 259 270 282 293 302 309 311 311 319 332 338 343 348 343 337 335 334 337 342 344 345 345 346 347 344 343 343 343 343 345 345 343 344 345 343 343 343 343
112 115 114 113 112 111 112 120 130 136 140 145 147 142 137 139 142 140 138 142 147 146 149 163 176 178 173 170 177 187 188 186 191 196 197 191 182 181 184 189 204 216 213 216 228 239 251 263 279 293 305 317 328 334 335 339 344 347 352 354 347 338 336 336 334 336 339 341 343 345 346 344 342 342 341 344 348 347 340 338 339 336 333 334 336
97 101 106 107 107 107 108 114 119 119 119 122 119 109 102 105 112 116 118 119 123 128 134 143 155 159 151 144 148 155 160 161 162 165 168 167 164 163 164 166 173 179 185 200 212 226 242 253 273 295 313 326 330 332 332 333 336 339 345 352 345 327 322 321 320 324 330 332 334 337 336 335 337 339 342 349 351 338 329 331 334 332 329 329 330
85 82 83 82 88 99 105 110 114 115 116 118 115 110 106 103 104 108 111 108 103 104 115 126 137 140 139 136 134 137 148 156 156 157 161 162 160 159 160 167 176 180 187 210 232 250 266 280 294 306 319 327 333 339 338 338 344 347 349 3 353 320 314 317 318 322 328 328 328 330 329 329 332 334 337 341 335 324 326 331 332 333 334 333 333
86 89 86 78 78 85 90 94 102 111 119 123 119 117 120 122 123 126 128 123 112 94 89 93 89 90 107 117 123 137 152 155 154 168 184 173 161 163 169 180 196 208 234 259 272 286 300 307 308 313 331 346 358 9 3 355 3 6 3 16 7 327 322 324 325 328 332 330 328 329 327 327 328 328 330 331 329 328 332 335 337 339 341 340 341
89 94 90 91 97 89 82 90 99 108 123 132 131 132 140 147 149 148 139 132 129 126 125 123 121 124 115 105 118 148 159 137 133 168 190 187 175 185 206 254 278 291 305 305 306 307 303 306 323 0 38 28 23 38 28 2 355 5 6 18 11 333 322 318 324 332 335 331 330 332 330 330 331 332 334 335 334 336 339 341 345 348 348 350 353
109 109 99 108 115 100 92 104 108 60 40 131 161 170 170 171 176 173 159 151 150 154 162 161 155 158 157 143 150 170 179 143 115 133 186 245 284 289 298 315 316 318 319 317 319 296 218 85 49 56 71 51 33 80 55 357 319 340 9 17 11 335 312 307 324 339 339 335 337 340 338 338 338 338 340 341 341 343 346 347 349 351 351 352 354
127 130 120 124 122 106 112 125 110 49 18 143 167 181 186 181 187 187 178 173 172 171 176 181 176 175 181 182 183 197 218 226 247 342 328 302 297 304 308 313 313 322 350 94 119 117 106 86 61 86 98 59 356 175 99 356 302 286 347 19 17 337 308 308 329 340 338 337 342 346 345 341 338 338 341 342 343 345 347 348 349 350 348 346 346
147 156 151 148 141 119 136 150 143 138 279 253 183 195 223 215 189 194 192 189 190 190 190 193 193 191 195 200 204 213 229 240 258 292 302 294 293 299 305 316 325 45 116 137 134 119 98 78 36 266 93 49 312 254 118 329 304 311 338 2 5 320 303 312 330 336 337 340 345 349 346 338 335 338 341 342 342 344 345 345 347 348 345 341 338
154 175 177 163 143 111 125 163 189 220 271 303 280 218 243 238 196 200 205 203 203 204 203 207 213 215 217 221 227 232 239 248 260 276 286 288 293 305 324 358 39 92 138 153 148 135 125 116 103 114 102 64 348 350 15 311 311 335 337 326 321 306 307 321 330 329 333 340 344 347 343 334 334 340 343 341 341 343 344 345 347 346 342 337 333
156 159 167 170 166 148 132 146 182 212 247 312 15 172 246 265 243 224 215 212 213 213 213 219 226 230 236 241 242 244 248 252 260 270 277 281 294 339 19 36 54 77 126 146 137 129 136 147 156 166 162 169 328 333 323 317 322 327 318 316 311 305 314 326 324 318 327 339 344 343 335 330 333 336 335 334 337 339 340 340 339 337 334 329 327
163 150 151 160 172 176 161 157 173 174 129 132 152 165 195 239 280 291 260 239 239 231 226 231 235 235 237 239 239 242 246 250 258 266 270 277 298 5 61 60 59 64 87 127 132 119 120 152 197 223 246 298 318 314 325 333 327 318 316 314 304 304 315 320 314 316 329 339 343 343 338 335 335 331 327 328 332 331 331 332 332 330 326 322 321
189 176 173 177 181 180 170 165 170 167 157 168 177 183 196 203 243 317 323 309 302 285 267 273 275 263 252 245 241 242 244 249 257 261 255 266 286 127 97 73 59 59 60 59 193 154 148 228 258 293 301 308 306 301 306 313 313 318 318 308 305 313 323 322 321 328 336 343 351 353 346 338 331 326 326 329 327 325 328 332 330 324 320 319 321
194 184 191 200 196 181 171 173 177 178 187 193 188 196 221 204 202 246 267 275 316 307 305 324 332 322 293 267 256 255 257 260 270 279 287 310 244 154 121 81 59 55 22 326 312 317 317 307 296 285 277 271 277 289 302 315 321 323 315 313 324 340 340 336 340 341 340 349 360 353 340 332 326 323 325 326 324 324 326 321 313 310 313 319 325
203 189 189 194 192 185 191 207 209 208 210 209 205 218 237 218 200 225 245 234 243 277 296 320 335 340 337 322 296 271 263 23 9 355 346 29 126 134 117 78 63 64 20 337 351 12 10 358 349 332 316 308 302 302 309 315 318 320 320 326 344 353 344 344 349 343 342 357 1 339 331 337 334 328 327 328 330 332 328 320 318 320 324 327 330
212 200 192 189 189 191 198 211 218 216 213 211 213 222 240 240 228 228 231 229 230 236 267 312 333 339 341 342 344 143 129 97 54 31 36 74 91 98 99 83 77 86 74 16 29 45 39 14 356 340 333 331 329 330 334 332 328 329 332 339 348 349 344 345 340 327 324 330 321 317 332 338 326 314 312 316 320 320 319 323 331 334 332 331 330
208 202 197 195 194 193 194 196 200 209 214 212 213 221 230 234 236 230 220 221 226 221 224 261 285 256 236 248 124 133 135 116 72 45 51 71 69 59 87 89 84 93 93 61 34 45 29 329 305 305 315 327 336 341 344 346 345 342 343 347 347 342 341 342 334 323 318 313 308 314 322 312 296 290 292 297 302 306 312 321 331 332 329 327 326
198 199 201 203 203 200 201 202 199 204 217 213 214 227 235 227 223 225 221 222 225 219 215 227 226 218 220 234 253 235 146 124 100 82 100 121 97 89 111 105 107 116 84 331 287 288 325 318 312 324 337 339 337 330 326 333 340 340 338 339 334 324 316 309 302 303 309 313 312 305 290 284 285 288 291 294 299 305 311 316 318 316 315 315 317
196 200 206 211 211 208 210 211 202 191 206 209 210 224 235 226 219 221 219 219 222 215 209 226 238 240 240 247 260 258 186 142 118 107 134 150 129 136 142 56 347 352 29 334 300 295 300 307 322 343 344 327 314 304 297 300 315 327 335 337 333 327 315 297 283 278 281 289 293 288 284 287 292 296 298 301 303 306 310 312 311 309 306 307 314
196 201 206 212 210 207 208 209 193 181 200 213 213 218 226 225 222 219 213 212 219 213 212 235 251 257 257 263 273 257 198 172 137 101 125 144 128 111 69 41 30 130 122 43 344 331 328 336 344 335 311 298 295 296 300 304 300 301 322 338 336 324 303 288 285 285 286 287 289 291 295 299 302 305 307 310 312 314 317 319 320 320 318 316 317
185 206 219 216 203 196 193 193 189 188 198 209 211 213 217 218 218 218 214 211 211 207 208 233 257 272 279 284 290 179 176 176 153 118 139 130 97 88 90 129 210 214 213 237 300 297 296 335 343 321 302 298 297 297 306 310 296 285 288 298 299 291 283 282 288 292 293 294 296 300 306 311 314 316 319 320 320 321 322 323 323 323 321 316 313
173 203 227 216 191 182 176 178 191 192 191 201 210 212 212 212 214 217 215 209 208 204 198 215 253 285 310 345 84 118 136 150 170 180 169 134 122 135 163 225 237 239 247 258 263 262 261 266 279 282 282 286 289 288 286 286 288 293 296 290 285 285 288 291 294 295 297 301 305 310 314 317 319 321 324 325 325 325 325 324 323 320 317 317 315
177 183 201 195 184 175 166 171 191 194 191 199 209 210 210 212 212 211 210 210 210 202 186 184 205 239 347 53 91 120 135 148 172 190 197 198 196 197 218 246 255 259 263 263 260 259 260 265 274 282 285 287 290 292 291 289 290 296 298 292 291 295 298 299 300 301 303 307 312 314 316 317 320 323 326 328 329 328 326 324 323 320 318 320 319
189 181 182 186 184 177 172 182 194 193 193 200 203 203 208 210 205 200 202 203 200 195 188 183 184 182 164 140 134 143 149 144 149 198 228 237 241 242 247 255 263 268 267 261 260 266 274 284 296 300 301 296 292 293 296 296 298 300 297 293 295 299 301 303 305 307 310 313 316 317 318 320 323 326 328 329 329 329 326 322 322 321 320 319 319
187 185 189 188 186 185 186 187 188 189 195 200 200 199 203 202 194 197 204 198 183 170 164 166 167 166 163 154 143 137 148 164 191 235 257 270 273 264 263 268 275 278 276 275 277 284 292 301 306 308 308 306 304 302 301 301 306 307 302 299 302 306 309 313 315 315 316 319 320 319 321 323 325 328 330 330 329 328 325 322 321 320 319 317 316
178 186 195 191 187 187 187 187 189 193 195 195 191 192 197 197 191 196 208 206 194 182 173 166 158 151 154 158 158 169 209 229 242 255 265 266 263 268 276 284 287 289 295 300 299 299 302 306 309 312 312 310 310 310 309 311 315 312 305 307 315 320 320 321 321 320 321 322 322 321 323 325 326 327 329 328 326 325 323 321 320 319 318 317 316
182 184 192 193 188 186 186 189 192 193 190 189 190 192 195 196 192 187 189 196 192 182 169 157 158 167 185 205 220 233 242 253 263 256 238 252 270 282 295 302 304 309 318 323 316 311 312 316 321 325 324 318 315 315 317 320 320 310 306 314 322 324 321 322 324 325 325 325 324 324 324 323 324 325 325 325 325 325 323 320 319 318 317 315 315
185 183 190 194 188 183 186 188 186 185 186 187 189 189 188 187 186 182 175 169 168 166 167 172 174 169 177 204 215 226 240 254 264 261 259 271 292 310 315 314 316 322 326 325 323 320 318 321 327 328 327 325 325 327 327 320 308 300 303 311 316 317 319 322 325 327 329 328 327 327 326 324 324 325 325 324 323 322 319 318 318 317 315 314 314
186 185 189 194 189 185 188 186 179 179 184 182 181 185 186 179 175 177 173 166 164 165 168 175 179 174 185 216 238 256 269 271 268 263 261 269 297 308 292 288 296 306 309 315 320 320 317 315 312 308 311 319 322 325 321 309 300 298 302 307 309 313 317 321 324 329 332 333 332 331 330 328 327 327 328 327 322 316 315 317 317 315 314 314 313